Change the Weather History Date:

Tuesday, November 26, 2013

  Actual Average (KBLF) Record (KBLF)
Temperature  
Mean Temperature 41 °F 43 °F  
Max Temperature 48 °F 51 °F 70 °F (1990)
Min Temperature 34 °F 35 °F 15 °F (1977)
Degree Days  
Heating Degree Days 24 22  
Month to date heating degree days 449  
Since 1 July heating degree days 813  
Cooling Degree Days 0 0  
Month to date cooling degree days 0  
Year to date cooling degree days 851  
Moisture  
Dew Point 41 °F    
Average Humidity 91    
Maximum Humidity 96    
Minimum Humidity 84    
Precipitation  
Precipitation 1.64 in 0.10 in 1.83 in (2013)
Month to date precipitation 2.31  
Year to date precipitation 36.34  
Snow  
Snow 0.00 in - - ()
Month to date snowfall  
Since 1 July snowfall  
Since 1 September snowfall  
Snow Depth -    
Sea Level Pressure  
Sea Level Pressure 29.92 in    
Wind  
Wind Speed 4 mph (SSE)    
Max Wind Speed 15 mph    
Max Gust Speed 20 mph    
Visibility 5 miles    
Events Fog , Rain , Snow    
T = Trace of Precipitation, MM = Missing Value Source: NWS Daily Summary

Daily Weather History Graph

Daily Weather History Graph

Search for Another Location

Airport or City:

Trip Planner

Search our weather history database for the weather conditions in past years. The results will help you decide how hot, cold, wet, or windy it might be!

Date:

Astronomy

Nov. 26, 2013 Rise Set
Actual Time 7:17 AM EST 5:11 PM EST
Civil Twilight 6:49 AM EST 5:39 PM EST
Nautical Twilight 6:17 AM EST 6:11 PM EST
Astronomical Twilight 5:45 AM EST 6:43 PM EST
Moon 12:28 AM EST (11/26) 1:09 PM EST (11/26)
Length of Visible Light 10h 50m
Length of Day
9h 54m
Last Quarter, 41% of the Moon is Illuminated
Nov 26
Last Quarter
Dec 2
New
Dec 9
First Quarter
Dec 17
Full
Dec 25
Last Quarter

Hourly Weather History & Observations

Time (EST) Temp. Windchill Dew Point Humidity Pressure Visibility Wind Dir Wind Speed Gust Speed Precip Events Conditions
12:15 AM 34.7 °F 30.6 °F 30.2 °F 84% 30.16 in 10.0 mi ESE 4.6 mph - N/A   Overcast
12:35 AM 34.7 °F 31.8 °F 30.2 °F 84% 30.16 in 10.0 mi East 3.5 mph - N/A   Overcast
12:55 AM 35.6 °F 32.8 °F 31.1 °F 84% 30.15 in 10.0 mi NNE 3.5 mph - N/A   Overcast
1:15 AM 36.1 °F - 31.8 °F 84% 30.16 in 10.0 mi Calm Calm - N/A   Overcast
1:35 AM 36.5 °F 33.9 °F 32.7 °F 86% 30.13 in 5.0 mi SE 3.5 mph - N/A Rain Rain
1:55 AM 37.8 °F - 34.2 °F 87% 30.14 in 7.0 mi Calm Calm - 0.01 in Rain Light Rain
2:15 AM 39.0 °F - 35.6 °F 88% 30.14 in 10.0 mi Calm Calm - 0.01 in Rain Light Rain
2:35 AM 39.9 °F 36.7 °F 36.5 °F 88% 30.13 in 7.0 mi SSE 4.6 mph - 0.02 in Rain Light Rain
2:55 AM 38.1 °F 34.6 °F 36.0 °F 92% 30.12 in 4.0 mi SSE 4.6 mph - 0.03 in Rain Light Rain
3:15 AM 39.2 °F 35.0 °F 36.7 °F 91% 30.11 in 10.0 mi SSE 5.8 mph - N/A Rain Light Rain
3:35 AM 42.6 °F 39.0 °F 39.2 °F 88% 30.10 in 10.0 mi SSW 5.8 mph - 0.01 in Rain Light Rain
3:55 AM 44.2 °F 41.8 °F 39.6 °F 84% 30.10 in 10.0 mi SSW 4.6 mph - 0.01 in Rain Light Rain
4:15 AM 44.6 °F 40.7 °F 40.1 °F 84% 30.10 in 10.0 mi SSW 6.9 mph - 0.01 in Rain Light Rain
4:35 AM 44.8 °F 42.4 °F 40.6 °F 85% 30.10 in 10.0 mi SW 4.6 mph - 0.02 in Rain Light Rain
4:55 AM 40.6 °F 36.7 °F 38.3 °F 91% 30.11 in 10.0 mi WNW 5.8 mph - 0.03 in Rain Light Rain
5:15 AM 43.9 °F 42.3 °F 41.0 °F 90% 30.10 in 10.0 mi SSE 3.5 mph - 0.01 in Rain Light Rain
5:35 AM 42.3 °F 39.4 °F 40.1 °F 92% 30.09 in 5.0 mi SSW 4.6 mph - 0.02 in Rain Rain
5:55 AM 41.7 °F - 39.6 °F 92% 30.09 in 7.0 mi Calm Calm - 0.03 in   Drizzle
6:15 AM 42.8 °F - 40.5 °F 91% 30.08 in 10.0 mi Calm Calm - N/A   Drizzle
6:35 AM 44.4 °F - 40.8 °F 87% 30.07 in 10.0 mi Calm Calm - N/A   Drizzle
6:55 AM 45.3 °F 44.0 °F 42.3 °F 89% 30.07 in 10.0 mi WSW 3.5 mph - N/A Rain Rain
7:15 AM 45.5 °F - 42.4 °F 89% 30.07 in 10.0 mi Calm Calm - 0.01 in Rain Light Rain
7:35 AM 45.1 °F - 42.8 °F 91% 30.07 in 7.0 mi Calm Calm - 0.04 in Rain Rain
7:55 AM 45.5 °F 44.2 °F 43.0 °F 91% 30.06 in 7.0 mi SE 3.5 mph - 0.08 in Rain Rain
8:15 AM 45.9 °F - 43.2 °F 90% 30.06 in 7.0 mi Calm Calm - 0.02 in Rain Light Rain
8:35 AM 45.1 °F - 43.2 °F 93% 30.06 in 10.0 mi Calm Calm - 0.03 in Rain Rain
8:55 AM 47.5 °F - 44.1 °F 88% 30.06 in 10.0 mi South 6.9 mph - 0.06 in Rain Rain
9:15 AM 48.0 °F - 45.0 °F 89% 30.05 in 10.0 mi Calm Calm - 0.01 in Rain Light Rain
9:35 AM 48.2 °F - 45.0 °F 89% 30.03 in 10.0 mi Calm Calm - 0.02 in Rain Light Rain
9:55 AM 46.4 °F 44.3 °F 43.7 °F 90% 30.02 in 7.0 mi East 4.6 mph - 0.05 in Rain Rain
10:15 AM 46.4 °F 44.3 °F 43.7 °F 90% 30.02 in 5.0 mi North 4.6 mph - 0.04 in Rain Rain
10:35 AM 46.2 °F 44.1 °F 43.9 °F 92% 30.03 in 7.0 mi ESE 4.6 mph - 0.07 in Rain Rain
10:55 AM 46.4 °F 42.4 °F 44.1 °F 92% 30.00 in 5.0 mi ESE 8.1 mph - 0.11 in Rain Rain
11:15 AM 46.9 °F - 44.6 °F 92% 29.97 in 5.0 mi ESE 12.7 mph 17.3 mph 0.04 in Rain Rain
11:35 AM 48.2 °F - 45.3 °F 90% 29.95 in 5.0 mi ESE 8.1 mph 17.3 mph 0.08 in Rain Rain
11:55 AM 48.4 °F - 45.5 °F 90% 29.92 in 5.0 mi SE 10.4 mph 17.3 mph 0.13 in Rain Rain
12:15 PM 48.4 °F - 45.5 °F 90% 29.90 in 5.0 mi SSE 15.0 mph 19.6 mph 0.05 in Rain Rain
12:35 PM 48.6 °F - 45.5 °F 89% 29.91 in 5.0 mi SE 6.9 mph 17.3 mph 0.11 in Rain Rain
12:55 PM 47.7 °F - 45.5 °F 92% 29.90 in 2.5 mi Calm Calm - 0.20 in Rain Rain
1:15 PM 47.7 °F - 45.9 °F 93% 29.87 in 0.5 mi Calm Calm - 0.07 in   Overcast
1:35 PM 47.5 °F - 45.9 °F 94% 29.86 in 1.8 mi ESE 3.5 mph - 0.14 in Rain Rain
1:55 PM 47.3 °F - 45.5 °F 93% 29.87 in 0.5 mi ESE 4.6 mph - 0.22 in Rain Light Rain
2:15 PM 46.8 °F - 45.1 °F 94% 29.85 in 5.0 mi ESE 8.1 mph - 0.04 in Rain Rain
2:35 PM 46.8 °F - 45.0 °F 93% 29.84 in 4.0 mi East 5.8 mph - 0.09 in Rain Rain
2:55 PM 47.3 °F - 45.0 °F 92% 29.84 in 4.0 mi East 3.5 mph - 0.15 in Rain Rain
3:15 PM 47.1 °F - 45.0 °F 92% 29.82 in 5.0 mi SE 3.5 mph - 0.03 in Rain Rain
3:35 PM 46.9 °F - 45.0 °F 93% 29.83 in 5.0 mi SE 3.5 mph - 0.08 in Rain Rain
3:55 PM 46.6 °F - 44.8 °F 93% 29.80 in 1.2 mi ESE 5.8 mph - 0.13 in Rain Rain
4:15 PM 46.6 °F - 44.8 °F 93% 29.79 in 7.0 mi SE 5.8 mph - 0.04 in Rain Rain
4:35 PM 46.8 °F - 45.0 °F 93% 29.78 in 3.0 mi SE 5.8 mph - 0.09 in Rain Rain
4:55 PM 46.6 °F - 45.0 °F 94% 29.76 in 1.5 mi ESE 4.6 mph - 0.14 in Rain Rain
5:15 PM 46.6 °F - 45.0 °F 94% 29.73 in 0.5 mi Calm Calm - 0.03 in Rain Rain
5:35 PM 46.9 °F - 45.5 °F 95% 29.71 in 4.0 mi ENE 3.5 mph - 0.10 in Rain Rain
5:55 PM 46.6 °F - 45.0 °F 94% 29.73 in 0.5 mi WNW 3.5 mph - 0.16 in Rain Rain
6:15 PM 46.6 °F - 45.0 °F 94% 29.73 in 0.2 mi Calm Calm - 0.02 in Rain Light Rain
6:35 PM 46.6 °F - 45.1 °F 95% 29.71 in 0.2 mi Calm Calm - 0.05 in Rain Light Rain
6:55 PM 46.6 °F - 45.1 °F 95% 29.71 in 0.2 mi Calm Calm - 0.06 in Rain Light Rain
7:15 PM 46.6 °F - 45.1 °F 95% 29.70 in 0.2 mi WNW 3.5 mph - N/A Fog Fog
7:35 PM 46.4 °F 45.2 °F 45.0 °F 95% 29.72 in 0.2 mi WNW 3.5 mph - N/A Fog Fog
7:55 PM 46.4 °F 42.9 °F 45.0 °F 95% 29.71 in 0.2 mi WNW 6.9 mph - 0.01 in Fog Fog
8:15 PM 44.4 °F 39.0 °F 42.8 °F 94% 29.72 in 0.2 mi NW 10.4 mph - N/A Fog Fog
8:35 PM 41.5 °F 35.0 °F 40.1 °F 95% 29.72 in 1.5 mi WNW 11.5 mph 17.3 mph 0.01 in Rain Light Rain
8:55 PM 40.5 °F 34.1 °F 39.2 °F 95% 29.71 in 0.5 mi NW 10.4 mph - 0.01 in Rain Light Rain
9:15 PM 39.9 °F 34.5 °F 38.5 °F 95% 29.71 in 0.5 mi NW 8.1 mph - N/A Fog Fog
9:35 PM 39.4 °F 35.2 °F 38.3 °F 96% 29.70 in 0.2 mi NW 5.8 mph - N/A Fog Fog
9:55 PM 39.2 °F 33.6 °F 37.8 °F 95% 29.72 in 0.2 mi NW 8.1 mph - N/A Fog Fog
10:15 PM 38.3 °F 33.9 °F 37.0 °F 95% 29.72 in 0.2 mi NW 5.8 mph - N/A Fog Fog
10:35 PM 37.8 °F 31.3 °F 36.5 °F 95% 29.73 in 0.2 mi NW 9.2 mph - 0.01 in Fog Fog
10:55 PM 37.0 °F 29.3 °F 35.8 °F 95% 29.74 in 0.5 mi NW 11.5 mph 16.1 mph 0.01 in Fog Fog
11:15 PM 36.5 °F 31.8 °F 35.2 °F 95% 29.73 in 0.2 mi WNW 5.8 mph - N/A Rain Light Rain
11:35 PM 35.6 °F 29.9 °F 34.3 °F 95% 29.73 in 3.0 mi WNW 6.9 mph - N/A   Drizzle
11:55 PM 35.4 °F 29.7 °F 34.0 °F 94% 29.73 in 1.5 mi WNW 6.9 mph - 0.01 in Snow Light Snow